[[{"header":{"parameterUnit":"m.s-1","parameterCategory":1,"la1":30.2991,"la2":30.254,"lo1":-89.0895,"lo2":-89.0444,"dy":0.0017,"dx":0.0017,"nx":28,"ny":28,"refTime":"2024-03-20T03:00:00:Z","depth":0,"parameterNumber":2,"parameterNumberName":"U-component_of_WINDS"},"data":[0,0,0,0,0,0,0,0,0,0,0,0,0,0,0,0,0,0,0,0,0,0,0,0,0,0,0,0,0,0,0,0,0,0,0,0,0,0,0,0,0,0,0,0,0,0,0,0,0,0,0,0,0,0,0,0,0,0,-1.5177,-1.5177,0,-1.52,-1.52,-1.52,-1.5182,-1.5181,-1.5181,-1.518,-1.5203,-1.5204,-1.5206,0,0,0,0,0,0,0,0,0,0,0,0,0,-1.5117,-1.5118,-1.5177,-1.5177,-1.5177,-1.52,-1.52,-1.52,-1.5182,-1.5181,-1.518,-1.518,-1.5202,-1.5204,-1.5206,0,0,0,0,0,0,0,0,0,0,0,0,0,-1.5142,-1.5119,-1.5177,-1.5171,-1.5171,-1.52,-1.52,-1.52,-1.5182,-1.5181,-1.518,-1.5179,-1.5202,-1.5204,-1.5206,-1.5241,0,0,-1.5212,-1.5213,0,0,0,0,0,0,0,0,-1.5141,-1.5144,-1.5172,-1.5172,-1.5171,-1.5187,-1.5187,-1.5214,-1.5183,-1.5178,-1.518,-1.5179,-1.5198,-1.5201,-1.5207,-1.5242,-1.5243,-1.5212,-1.5213,-1.5214,-1.5215,0,0,0,0,0,0,0,-1.5139,-1.5143,-1.5186,-1.5172,-1.5172,-1.5167,-1.517,-1.5192,-1.5194,-1.5178,-1.5177,-1.518,-1.5198,-1.5206,-1.5208,-1.5244,-1.5212,-1.5214,-1.5215,-1.5216,-1.5308,-1.531,0,0,0,0,0,0,-1.5138,-1.5142,-1.5185,-1.5187,-1.5153,-1.5169,-1.5172,-1.5183,-1.5194,-1.5195,-1.5181,-1.5179,-1.5203,-1.5206,-1.5209,-1.5251,-1.5214,-1.5216,-1.5217,-1.5307,-1.5309,-1.531,0,0,0,0,0,0,-1.5137,-1.5142,-1.5184,-1.5164,-1.5169,-1.5172,-1.5184,-1.5184,-1.5192,-1.5196,-1.5196,-1.5188,-1.5202,-1.5206,-1.5233,-1.5251,-1.5217,-1.5219,-1.5306,-1.5308,-1.5309,-1.5335,0,0,0,0,0,0,-1.5135,-1.5141,-1.5155,-1.5164,-1.517,-1.5209,-1.5185,-1.5185,-1.5195,-1.5193,-1.5203,-1.5204,-1.5201,-1.523,-1.5235,-1.5253,-1.522,-1.5304,-1.5306,-1.5309,-1.5333,-1.5338,-1.5342,0,0,0,0,0,-1.5133,-1.5162,-1.5156,-1.5161,-1.5187,-1.521,-1.5213,-1.521,-1.5197,-1.521,-1.5213,-1.5203,-1.5248,-1.5233,-1.5239,-1.5258,-1.5303,-1.5306,-1.5309,-1.5331,-1.5337,-1.5342,0,0,0,0,0,0,-1.5154,-1.5163,-1.5157,-1.5189,-1.5199,-1.5207,-1.5224,-1.5217,-1.523,-1.5228,-1.5223,-1.5226,-1.5254,-1.5259,-1.5242,-1.5292,-1.5273,-1.5278,-1.5289,-1.5294,-1.5299,-1.5297,-1.5222,0,0,0,0,0,-1.5163,-1.5181,-1.5187,-1.5215,-1.522,-1.5221,-1.5231,-1.5228,-1.5238,-1.5242,-1.5247,-1.5257,-1.5273,-1.5284,-1.5299,-1.5333,-1.5335,-1.5349,-1.5354,-1.5357,-1.5361,-1.5379,-1.5385,-1.5319,-1.5319,-1.5319,0,0,-1.5181,-1.5187,-1.5199,-1.522,-1.5227,-1.5245,-1.5225,-1.5245,-1.5259,-1.5245,-1.5271,-1.5275,-1.5286,-1.5317,-1.533,-1.5321,-1.5379,-1.5361,-1.5364,-1.5365,-1.5383,-1.5389,-1.5394,-1.5321,-1.5321,-1.5321,0,0,-1.5223,-1.523,-1.5254,-1.5261,-1.5273,-1.5273,-1.5279,-1.5288,-1.529,-1.5316,-1.5306,-1.5322,-1.535,-1.5358,-1.5366,-1.5411,-1.5402,-1.5416,-1.544,-1.5458,-1.5463,-1.5467,-1.5483,-1.5489,-1.5419,-1.5419,-1.5419,0,-1.5244,-1.5271,-1.5267,-1.5288,-1.5297,-1.5286,-1.531,-1.5317,-1.5333,-1.5339,-1.5329,-1.5364,-1.537,-1.5403,-1.5414,-1.542,-1.5427,-1.5415,-1.5462,-1.5467,-1.5471,-1.5486,-1.5492,-1.5421,-1.5421,-1.542,-1.542,0,-1.5296,-1.5315,-1.5333,-1.5349,-1.536,-1.5383,-1.5382,-1.5393,-1.5389,-1.5391,-1.5417,-1.5424,-1.5441,-1.5448,-1.5444,-1.548,-1.5474,-1.5463,-1.5444,-1.5479,-1.5493,-1.5499,-1.5423,-1.5423,-1.5422,-1.5422,0,0,-1.5353,-1.5365,-1.5372,-1.5379,-1.539,-1.5405,-1.5427,-1.5443,-1.5453,-1.5464,-1.5482,-1.5506,-1.5496,-1.5505,-1.5501,-1.5517,-1.5552,-1.5504,-1.5504,-1.5512,-1.5591,-1.56,-1.5606,-1.5546,-1.5547,-1.5548,-1.559,0,-1.5395,-1.5433,-1.543,-1.5466,-1.5484,-1.5473,-1.5492,-1.55,-1.5502,-1.5517,-1.5519,-1.5536,-1.5522,-1.5527,-1.5542,-1.5544,-1.5567,-1.5541,-1.5563,-1.5563,-1.556,-1.5614,-1.5623,-1.5663,-1.5596,-1.5597,-1.5598,0,-1.545,-1.5463,-1.5501,-1.5509,-1.5516,-1.5534,-1.5548,-1.5562,-1.5572,-1.5572,-1.5582,-1.5576,-1.5598,-1.5578,-1.5608,-1.559,-1.5599,-1.5601,-1.5603,-1.5605,-1.5583,-1.5617,-1.5675,-1.5681,-1.5606,-1.5605,-1.5605,0,-1.5487,-1.5514,-1.554,-1.5546,-1.5557,-1.5569,-1.5574,-1.5583,-1.5592,-1.5605,-1.5611,-1.5626,-1.5634,-1.5646,-1.5644,-1.563,-1.5674,-1.5654,-1.5675,-1.5675,-1.5685,-1.5684,-1.5745,-1.569,-1.569,-1.569,-1.569,0,-1.5535,-1.5559,-1.5557,-1.5573,-1.5599,-1.5595,-1.5621,-1.5624,-1.5632,-1.5648,-1.5639,-1.5655,-1.5651,-1.5667,-1.5665,-1.569,-1.5694,-1.5694,-1.5694,-1.5695,-1.5695,-1.5701,-1.5698,-1.5691,-1.5691,-1.5691,-1.569,0,-1.5582,-1.5581,-1.5609,-1.5617,-1.5619,-1.5638,-1.5644,-1.5659,-1.566,-1.5681,-1.5686,-1.5687,-1.5705,-1.5704,-1.5723,-1.5722,-1.5753,-1.5749,-1.575,-1.5749,-1.5769,-1.5768,-1.5836,-1.5845,-1.5784,-1.5785,-1.5785,0,-1.5612,-1.563,-1.5639,-1.565,-1.5655,-1.5672,-1.5682,-1.5679,-1.5689,-1.5702,-1.5715,-1.5732,-1.5745,-1.5773,-1.5776,-1.5791,-1.5787,-1.581,-1.579,-1.5791,-1.5788,-1.5787,-1.5788,-1.5815,-1.5815,-1.5816,-1.5816,0,-1.5667,-1.5665,-1.568,-1.5695,-1.5707,-1.5718,-1.5729,-1.5738,-1.5735,-1.5748,-1.5766,-1.5776,-1.5796,-1.5813,-1.5827,-1.5831,-1.5824,-1.5823,-1.5828,-1.583,-1.583,-1.583,-1.5761,-1.5821,-1.5821,-1.582,-1.582,-1.582,-1.5706,-1.5721,-1.573,-1.5747,-1.5754,-1.5764,-1.5779,-1.5781,-1.5796,-1.5812,-1.5809,-1.5829,-1.5838,-1.5856,-1.5862,-1.5878,-1.5869,-1.5877,-1.5879,-1.5882,-1.5884,-1.5827,-1.588,-1.588,-1.588,-1.588,-1.588,0,-1.576,-1.5765,-1.578,-1.5795,-1.5808,-1.5799,-1.581,-1.5822,-1.5839,-1.5848,-1.5861,-1.5882,-1.5898,-1.5902,-1.5917,-1.5928,-1.5925,-1.5932,-1.5932,-1.5933,-1.589,-1.5884,-1.5935,-1.5935,-1.5935,-1.5935,-1.5935,-1.5935,-1.5789,-1.5815,-1.5815,-1.5844,-1.5848,-1.5868,-1.5875,-1.5884,-1.5891,-1.5914,-1.5927,-1.593,-1.5936,-1.5952,-1.5966,-1.5967,-1.5973,-1.5982,-1.5981,-1.5941,-1.5936,-1.5931,-1.5925,-1.5983,-1.5983,-1.6022,-1.6023,-1.6023]},{"header":{"parameterUnit":"m.s-1","parameterCategory":1,"la1":30.2991,"la2":30.254,"lo1":-89.0895,"lo2":-89.0444,"dy":0.0017,"dx":0.0017,"nx":28,"ny":28,"refTime":"2024-03-20T03:00:00:Z","depth":0,"parameterNumber":3,"parameterNumberName":"V-component_of_WINDS"},"data":[0,0,0,0,0,0,0,0,0,0,0,0,0,0,0,0,0,0,0,0,0,0,0,0,0,0,0,0,0,0,0,0,0,0,0,0,0,0,0,0,0,0,0,0,0,0,0,0,0,0,0,0,0,0,0,0,0,0,-1.3887,-1.3887,0,-1.392,-1.3921,-1.3921,-1.3932,-1.3932,-1.3932,-1.3932,-1.3966,-1.3967,-1.3969,0,0,0,0,0,0,0,0,0,0,0,0,0,-1.3832,-1.3833,-1.3887,-1.3887,-1.3887,-1.392,-1.3921,-1.3921,-1.3932,-1.3932,-1.3932,-1.3932,-1.3966,-1.3967,-1.3969,0,0,0,0,0,0,0,0,0,0,0,0,0,-1.386,-1.3834,-1.3887,-1.3897,-1.3898,-1.392,-1.3921,-1.3921,-1.3932,-1.3932,-1.3932,-1.3932,-1.3966,-1.3967,-1.3969,-1.3983,0,0,-1.3974,-1.3974,0,0,0,0,0,0,0,0,-1.3858,-1.3862,-1.3895,-1.3896,-1.3898,-1.3922,-1.3914,-1.3942,-1.3933,-1.392,-1.3932,-1.3932,-1.3952,-1.3955,-1.3961,-1.3984,-1.3986,-1.3974,-1.3975,-1.3975,-1.3976,0,0,0,0,0,0,0,-1.3856,-1.3861,-1.39,-1.3896,-1.3897,-1.39,-1.3904,-1.3919,-1.3936,-1.3921,-1.3922,-1.3925,-1.3953,-1.396,-1.3962,-1.3986,-1.3974,-1.3975,-1.3976,-1.3977,-1.4022,-1.4022,0,0,0,0,0,0,-1.3853,-1.3859,-1.3899,-1.3901,-1.3877,-1.3901,-1.3905,-1.3914,-1.3936,-1.3939,-1.3926,-1.3926,-1.3957,-1.396,-1.3963,-1.3981,-1.3975,-1.3977,-1.3978,-1.4022,-1.4022,-1.4023,0,0,0,0,0,0,-1.3852,-1.3856,-1.3898,-1.388,-1.3886,-1.3902,-1.3912,-1.3915,-1.3922,-1.394,-1.3943,-1.393,-1.3957,-1.3961,-1.3978,-1.3982,-1.3978,-1.3979,-1.4022,-1.4022,-1.4022,-1.4016,0,0,0,0,0,0,-1.385,-1.3856,-1.3861,-1.388,-1.3887,-1.3911,-1.3913,-1.3916,-1.3925,-1.3926,-1.3945,-1.3948,-1.3957,-1.3975,-1.3979,-1.3984,-1.398,-1.4021,-1.4022,-1.4022,-1.4016,-1.4016,-1.4016,0,0,0,0,0,-1.3848,-1.3858,-1.3861,-1.3866,-1.3894,-1.3911,-1.3915,-1.3926,-1.3925,-1.3931,-1.3942,-1.3947,-1.3981,-1.3977,-1.3981,-1.3987,-1.4021,-1.4022,-1.4022,-1.4016,-1.4016,-1.4016,0,0,0,0,0,0,-1.3839,-1.3861,-1.3865,-1.3881,-1.3894,-1.3913,-1.3921,-1.3926,-1.3939,-1.394,-1.3952,-1.3957,-1.3972,-1.3981,-1.3976,-1.4002,-1.4001,-1.4003,-1.3995,-1.3995,-1.3996,-1.3993,-1.3981,0,0,0,0,0,-1.3839,-1.3851,-1.387,-1.3882,-1.3889,-1.3904,-1.3912,-1.3919,-1.3933,-1.3939,-1.3951,-1.3965,-1.3979,-1.3988,-1.4001,-1.4017,-1.4022,-1.4024,-1.4024,-1.4024,-1.4025,-1.4034,-1.4035,-1.4025,-1.4025,-1.4024,0,0,-1.3839,-1.3852,-1.3859,-1.3881,-1.3892,-1.3905,-1.3908,-1.3922,-1.3931,-1.3941,-1.3957,-1.3967,-1.3983,-1.3999,-1.4007,-1.4007,-1.4029,-1.4025,-1.4025,-1.4026,-1.4035,-1.4036,-1.4037,-1.4025,-1.4025,-1.4025,0,0,-1.3845,-1.3856,-1.3868,-1.3879,-1.3896,-1.3906,-1.3909,-1.3927,-1.3934,-1.395,-1.3958,-1.397,-1.3993,-1.4004,-1.4013,-1.4024,-1.4029,-1.4028,-1.4029,-1.4038,-1.4039,-1.404,-1.4043,-1.4044,-1.4029,-1.4029,-1.4029,0,-1.3843,-1.3862,-1.3874,-1.3887,-1.3896,-1.3905,-1.3917,-1.3928,-1.3948,-1.3954,-1.3955,-1.3984,-1.3996,-1.4015,-1.4018,-1.4024,-1.4028,-1.4026,-1.4038,-1.4039,-1.404,-1.4043,-1.4045,-1.4029,-1.4029,-1.4029,-1.4029,0,-1.3858,-1.3872,-1.3879,-1.3899,-1.3909,-1.3921,-1.3935,-1.3944,-1.395,-1.396,-1.3977,-1.3991,-1.4008,-1.4013,-1.4019,-1.4033,-1.4033,-1.4035,-1.4035,-1.404,-1.4044,-1.4045,-1.4029,-1.4029,-1.4029,-1.4029,0,0,-1.3859,-1.3885,-1.3888,-1.3897,-1.3916,-1.3927,-1.394,-1.3956,-1.3963,-1.3977,-1.3988,-1.4008,-1.4011,-1.4021,-1.4029,-1.4036,-1.4044,-1.4038,-1.4038,-1.4038,-1.4059,-1.4057,-1.4059,-1.4047,-1.4048,-1.4048,-1.4058,0,-1.3868,-1.3891,-1.3902,-1.3921,-1.3933,-1.3943,-1.3954,-1.3967,-1.3977,-1.3989,-1.3999,-1.4013,-1.4015,-1.4021,-1.403,-1.4041,-1.4048,-1.4041,-1.4058,-1.4058,-1.4053,-1.406,-1.4058,-1.4067,-1.4059,-1.406,-1.406,0,-1.3881,-1.3895,-1.3914,-1.3932,-1.3938,-1.3948,-1.3964,-1.3975,-1.399,-1.3997,-1.4008,-1.4016,-1.403,-1.4029,-1.4049,-1.4043,-1.4051,-1.4058,-1.4059,-1.406,-1.4059,-1.4062,-1.407,-1.4071,-1.4062,-1.4062,-1.4062,0,-1.3879,-1.3903,-1.3918,-1.3925,-1.3946,-1.3953,-1.3962,-1.3977,-1.3986,-1.4,-1.4007,-1.4022,-1.4031,-1.4042,-1.4054,-1.4053,-1.4073,-1.4073,-1.4078,-1.4078,-1.4082,-1.4081,-1.4091,-1.4087,-1.4087,-1.4087,-1.4087,0,-1.3887,-1.3899,-1.3917,-1.3926,-1.394,-1.3952,-1.3965,-1.3975,-1.3988,-1.4,-1.4009,-1.4019,-1.4034,-1.4047,-1.4056,-1.4071,-1.4075,-1.408,-1.4082,-1.4079,-1.4078,-1.4084,-1.4084,-1.4088,-1.4088,-1.4087,-1.4087,0,-1.3888,-1.39,-1.3917,-1.3936,-1.3941,-1.395,-1.3966,-1.3975,-1.3985,-1.4,-1.4004,-1.402,-1.4035,-1.4048,-1.4068,-1.4074,-1.4089,-1.4092,-1.4084,-1.4085,-1.4089,-1.4089,-1.4102,-1.4105,-1.41,-1.41,-1.41,0,-1.3892,-1.3901,-1.3921,-1.3929,-1.3938,-1.3951,-1.396,-1.3973,-1.3983,-1.4001,-1.4008,-1.4024,-1.4037,-1.406,-1.4074,-1.4089,-1.4092,-1.4096,-1.4095,-1.4091,-1.4092,-1.4091,-1.4092,-1.4096,-1.4096,-1.4096,-1.4096,0,-1.3898,-1.3904,-1.3917,-1.3932,-1.3943,-1.3956,-1.3969,-1.3975,-1.399,-1.4,-1.4016,-1.4026,-1.4046,-1.4062,-1.4079,-1.4088,-1.4095,-1.4096,-1.4098,-1.4095,-1.409,-1.4092,-1.4083,-1.4096,-1.4096,-1.4096,-1.4096,-1.4096,-1.39,-1.3909,-1.3924,-1.3938,-1.3949,-1.3961,-1.3971,-1.3982,-1.3995,-1.4012,-1.4019,-1.4035,-1.405,-1.4074,-1.4083,-1.4096,-1.4097,-1.41,-1.4101,-1.4101,-1.41,-1.4088,-1.4099,-1.4099,-1.4099,-1.4099,-1.4099,0,-1.3906,-1.3916,-1.393,-1.3947,-1.3959,-1.3964,-1.3978,-1.3988,-1.4001,-1.4015,-1.4028,-1.4045,-1.4061,-1.4075,-1.4091,-1.4099,-1.4102,-1.4102,-1.4102,-1.4104,-1.4099,-1.4095,-1.4099,-1.4099,-1.4099,-1.4099,-1.4099,-1.4099,-1.3911,-1.3925,-1.3933,-1.3953,-1.3964,-1.3979,-1.3987,-1.3998,-1.4009,-1.4028,-1.4041,-1.405,-1.4065,-1.4082,-1.4096,-1.41,-1.4105,-1.4105,-1.4109,-1.4104,-1.4104,-1.4104,-1.4101,-1.4106,-1.4106,-1.4113,-1.4113,-1.4114]}]]